Temperature
21 20 19 19 19 19 21 22 22 23 22 22 22 22 21 20 20 20 20 20 20 20 19 19 19 19 19 19 19 19 18 18 18 18 18 18 18 18 18 18 18 18 18 19 18 18 18 18 18
21 20 19 19 19 20 21 22 22 23 23 23 22 22 21 20 20 21 20 20 20 20 19 19 19 19 19 19 19 18 18 18 18 18 18 18 18 18 18 18 18 18 18 18 18 18 18 18 18
20 20 20 19 20 20 22 22 22 23 23 23 22 22 21 20 21 21 20 20 20 20 19 19 19 19 19 19 19 18 18 18 18 18 18 18 18 18 18 18 18 18 18 18 18 18 18 18 18
20 20 20 19 21 21 22 23 23 23 23 23 22 21 21 20 21 21 20 20 20 20 19 19 19 19 19 18 18 18 18 18 18 18 18 18 18 18 18 18 18 18 18 18 18 18 18 18 18
21 20 20 20 21 22 23 23 23 23 22 22 22 20 20 20 21 21 20 20 20 20 19 19 19 19 19 19 18 18 18 18 18 18 18 18 18 18 18 18 18 18 18 18 18 18 18 18 18
21 20 20 21 22 23 23 24 23 22 22 22 21 20 20 20 21 21 20 20 20 20 19 19 19 19 19 18 18 18 18 18 18 18 18 18 18 18 18 18 18 18 18 18 18 18 18 18 18
21 19 21 22 22 23 24 24 23 22 22 22 22 20 20 20 21 20 20 20 20 20 19 19 19 19 19 19 18 18 18 18 18 18 18 18 18 18 18 18 18 18 18 18 18 18 18 18 18
22 19 21 21 23 23 24 24 24 23 22 22 22 20 20 20 20 20 20 20 20 20 19 19 19 19 19 19 19 19 19 18 18 18 18 18 18 18 18 18 18 18 18 18 18 18 18 18 18
22 20 21 22 23 23 24 24 23 23 22 22 22 22 21 21 20 20 20 20 20 19 19 19 19 19 19 19 18 19 19 18 18 18 18 18 18 18 18 18 18 18 18 18 18 18 18 18 18
22 20 22 23 23 23 24 23 23 23 22 22 21 21 21 21 20 20 20 20 20 19 19 19 19 19 19 19 18 18 18 18 18 18 18 18 18 18 18 18 18 18 18 18 18 18 18 18 18
22 22 23 24 24 24 23 24 23 22 21 22 21 21 21 21 20 20 20 20 20 20 19 19 19 19 19 19 18 18 18 18 18 18 18 18 18 18 18 18 18 18 18 18 18 18 18 18 18
23 23 24 24 25 24 24 24 23 23 23 23 22 22 21 21 20 20 20 20 20 20 19 19 19 19 19 19 18 18 18 18 18 18 18 18 18 18 18 18 18 18 18 18 18 18 18 18 18
24 24 24 25 25 24 24 23 23 22 23 23 22 22 21 21 21 21 20 20 20 20 20 19 19 19 19 19 19 18 18 18 18 18 18 18 18 18 18 18 18 18 18 18 18 18 18 18 18
24 24 24 24 24 24 23 23 23 22 23 22 22 21 21 21 21 21 21 20 20 20 20 20 19 19 19 19 18 18 18 18 18 18 18 18 18 18 18 18 18 18 18 18 18 18 18 18 18
25 23 24 24 24 24 24 23 22 23 22 22 21 21 21 21 21 21 21 21 20 20 20 20 19 19 19 19 18 18 18 18 18 18 18 18 18 18 18 18 18 18 18 18 18 18 18 18 18
24 23 23 24 24 24 24 23 23 22 22 21 21 21 21 21 21 21 21 21 21 20 20 20 19 19 19 19 19 18 18 18 18 18 18 18 18 18 18 18 18 18 18 18 18 18 18 18 18
22 23 23 24 24 24 23 22 22 22 22 21 21 21 21 21 21 21 21 21 21 20 20 20 20 19 19 19 19 18 18 18 18 18 18 18 18 18 18 18 18 18 18 18 18 18 18 18 18
23 23 23 23 23 23 22 22 21 22 22 21 21 21 21 21 21 21 21 21 20 20 20 20 20 19 19 19 19 19 18 18 18 18 18 18 18 18 18 18 18 18 18 18 18 18 18 18 18
24 23 23 23 23 23 22 21 21 21 21 21 21 21 21 21 21 21 21 21 21 20 20 20 20 20 19 19 19 19 19 19 18 18 18 18 18 18 18 18 18 18 18 18 18 18 18 18 18
24 23 23 23 23 23 22 22 21 21 21 21 21 21 21 21 21 21 21 21 21 21 21 20 20 20 20 19 19 19 19 19 18 18 18 18 18 18 18 18 18 18 18 18 18 18 18 18 17
24 23 23 23 23 22 22 22 21 21 21 21 21 21 22 22 22 22 21 21 21 21 21 20 20 20 20 20 19 19 19 19 19 19 18 18 18 18 18 18 18 18 18 18 18 18 18 17 17
24 24 24 23 22 21 22 21 21 20 20 20 21 21 21 22 22 22 22 21 21 21 21 20 20 20 20 20 19 19 19 19 19 18 18 18 18 18 18 18 18 18 18 18 18 18 18 17 17
24 24 23 22 21 21 21 21 21 20 20 20 20 21 22 22 22 22 22 21 21 21 21 20 20 20 20 20 19 19 19 19 19 19 18 18 18 18 18 18 18 18 18 18 18 17 17 17 17
24 23 21 20 20 21 21 21 21 19 20 21 21 21 22 22 22 22 22 21 21 21 21 20 20 20 20 20 20 19 19 19 19 19 18 18 18 18 18 18 18 17 17 17 17 17 17 17 17
23 21 21 21 20 20 20 20 20 21 21 21 21 22 22 22 22 22 22 21 21 21 21 21 20 20 20 20 19 19 19 19 19 18 18 18 18 18 18 18 17 17 17 17 17 17 17 17 17
22 22 21 22 21 20 20 20 21 22 22 22 22 22 22 22 22 22 22 22 21 21 21 21 21 20 20 20 20 19 19 19 19 18 18 18 18 18 18 17 17 17 17 17 17 17 17 17 17
23 21 20 19 20 20 20 20 21 21 21 21 21 21 21 22 22 22 22 22 22 21 21 21 21 20 20 20 19 19 19 19 18 18 18 18 18 17 17 17 17 17 17 17 16 16 16 16 16
22 20 18 19 20 21 21 21 20 21 20 20 20 20 21 22 22 22 22 22 22 22 21 21 20 20 20 20 19 19 19 19 18 18 18 18 17 17 17 17 17 17 17 17 16 16 16 16 16
22 20 18 17 19 20 21 21 21 20 20 20 20 21 21 22 22 22 22 22 22 21 21 20 20 20 20 20 19 19 19 19 18 18 18 18 17 17 17 17 17 17 17 16 16 16 16 16 16
22 21 19 20 19 18 19 20 21 20 20 20 20 20 21 21 22 22 22 22 21 21 21 20 20 20 20 19 19 19 19 18 18 18 18 17 17 17 17 17 16 16 16 16 16 16 16 15 15
Wind_Speed
9 7 3 1 2 3 2 3 1 2 2 2 3 5 5 3 1 1 2 2 3 2 2 4 4 3 3 3 4 5 6 7 7 8 7 8 8 9 8 8 8 8 8 8 8 7 7 7 7
7 5 1 1 3 2 3 3 2 1 2 3 4 5 5 3 1 1 0 1 3 2 2 2 3 3 3 4 4 5 5 6 7 7 7 8 8 8 8 8 7 7 7 7 7 7 6 6 6
6 3 1 2 2 2 2 2 0 2 2 1 3 4 3 1 1 1 1 3 3 2 2 2 3 3 3 4 4 4 5 5 6 7 7 7 7 7 7 7 7 7 6 6 6 6 6 6 6
3 1 2 3 2 2 2 2 1 3 2 4 3 4 3 3 0 2 4 5 4 1 2 2 2 3 3 3 3 3 4 5 5 6 6 7 6 6 6 5 5 6 6 5 5 4 4 5 6
1 2 3 3 3 2 1 1 1 2 2 3 4 3 3 5 4 6 5 5 3 1 1 1 2 2 2 3 3 2 3 5 5 5 5 6 6 5 5 5 5 5 5 5 5 4 3 4 6
2 3 3 2 3 2 1 1 2 4 3 2 3 3 2 2 4 4 4 3 2 1 0 0 1 2 2 2 2 1 2 4 5 5 5 5 4 4 4 4 5 5 5 5 4 4 4 4 6
2 3 1 1 2 2 0 1 3 3 3 1 3 3 1 1 2 4 4 4 3 2 2 2 1 1 2 2 2 2 3 4 5 5 5 4 3 3 3 4 5 5 4 4 3 4 4 5 5
3 3 1 1 0 1 0 2 2 3 2 2 3 5 3 2 3 5 5 5 4 4 4 3 2 2 2 2 4 4 3 4 5 5 4 4 3 2 3 3 4 4 3 3 3 2 3 4 4
3 3 1 3 3 2 0 2 2 3 4 2 2 3 4 7 7 6 5 4 4 4 4 4 3 3 3 2 4 5 4 4 4 4 4 3 2 2 2 2 2 2 2 2 1 1 2 3 3
3 2 5 3 4 3 1 1 3 3 3 3 4 6 8 8 7 6 4 2 1 2 3 3 3 3 3 3 3 4 4 5 4 4 3 3 3 2 2 1 1 1 1 1 2 3 3 3 3
4 4 3 2 3 3 2 1 3 5 1 3 6 7 8 7 6 4 3 2 1 0 1 2 2 3 3 2 3 3 3 4 4 3 3 3 3 3 3 2 2 3 3 3 2 2 2 2 2
3 2 2 1 3 3 3 3 4 3 3 4 8 9 8 8 5 4 3 2 1 1 1 1 2 3 3 2 2 2 2 2 2 2 2 2 2 3 2 2 2 2 2 2 2 1 2 2 2
1 1 1 1 3 3 4 3 4 1 3 7 9 8 8 7 5 3 2 2 1 1 1 1 2 2 2 2 2 2 2 2 1 2 2 2 2 2 2 2 2 2 2 2 1 1 1 2 2
1 1 3 3 3 3 5 3 3 2 5 7 8 7 6 6 5 4 3 2 2 1 1 1 2 2 2 2 2 2 1 1 1 1 2 2 1 2 2 2 2 2 2 1 1 1 1 2 2
2 3 4 2 2 2 4 3 0 3 6 7 6 6 5 4 4 4 4 3 3 2 1 1 2 2 2 2 2 2 1 1 1 1 1 2 1 2 2 2 2 2 2 2 2 2 2 2 2
4 4 2 2 1 2 4 1 2 4 7 6 5 5 5 4 4 4 3 3 3 2 1 1 2 3 2 2 2 2 2 2 1 1 2 2 2 2 2 2 1 1 2 2 1 2 2 2 2
4 1 2 2 0 2 3 2 1 3 6 5 4 4 4 3 2 3 3 3 3 3 2 2 2 3 2 2 2 2 2 2 1 2 2 2 2 2 2 2 1 1 2 2 2 2 2 1 2
3 2 2 3 1 2 2 1 1 3 5 4 4 4 4 4 5 4 3 3 3 2 2 2 2 2 2 2 2 2 2 2 2 2 2 2 2 2 2 2 2 2 2 2 2 2 2 1 1
3 2 3 3 1 1 2 2 2 4 3 4 4 4 4 5 3 3 3 3 3 2 2 2 2 1 2 2 1 1 0 1 2 2 2 3 2 2 2 2 2 2 2 2 2 1 2 2 1
3 2 2 2 1 2 2 0 1 3 4 4 4 4 5 4 3 3 3 3 4 4 3 2 2 1 1 1 1 1 1 0 1 1 2 2 2 2 2 2 2 2 2 2 2 2 1 1 2
2 4 4 3 2 3 3 3 1 2 2 2 3 3 4 6 6 5 5 4 4 4 4 4 3 2 2 2 2 2 2 2 2 2 2 2 2 2 2 2 2 2 2 1 1 2 2 1 1
3 4 6 4 3 1 1 2 5 2 3 4 4 4 5 5 5 5 5 5 5 5 4 3 3 2 2 3 3 3 2 1 1 1 1 2 3 2 2 2 2 1 1 1 0 1 1 1 0
3 2 4 3 4 2 2 1 6 0 4 7 7 7 6 6 7 6 6 6 5 4 4 3 3 2 3 3 3 3 2 1 0 1 2 2 3 3 2 2 2 2 1 1 1 1 1 1 1
4 6 6 6 5 1 2 2 5 4 7 6 7 7 7 6 6 6 5 4 4 4 3 3 3 3 3 3 3 4 3 2 1 1 1 1 2 2 3 2 2 1 1 1 1 1 1 1 1
4 5 4 4 4 4 2 2 7 6 7 8 7 7 6 6 6 6 5 5 5 4 4 4 4 4 3 3 3 4 4 3 3 2 1 0 0 1 1 2 2 1 1 1 1 1 1 1 1
4 8 7 5 5 4 2 4 7 4 4 3 4 5 5 5 5 6 7 6 6 6 5 5 5 5 4 4 4 3 3 3 2 2 2 1 1 1 1 0 1 1 1 1 1 1 0 1 1
5 4 6 7 3 0 4 6 6 1 2 1 2 3 4 5 5 6 6 6 6 6 6 6 5 4 3 4 4 3 3 3 3 2 2 1 1 1 1 0 1 1 1 1 1 1 1 1 1
4 8 6 6 5 2 4 4 4 5 2 1 2 3 3 3 3 4 5 5 5 5 5 5 5 5 4 4 4 4 3 3 3 2 2 2 1 1 1 0 1 1 1 0 1 0 1 1 1
4 5 6 5 5 5 3 6 4 6 5 5 4 4 3 3 3 3 3 3 3 2 3 3 3 3 3 3 3 2 2 2 2 2 2 2 1 1 1 1 1 0 1 0 0 0 0 1 1
4 5 7 5 3 4 4 6 4 3 3 4 3 3 3 3 2 2 2 2 2 2 2 3 3 3 3 3 3 2 2 2 2 2 2 2 2 2 1 1 0 1 1 0 1 1 1 0 1
Wind_Direction
161 149 138 135 48 39 339 311 302 348 26 28 71 83 92 84 120 248 286 140 142 137 171 185 187 184 168 154 149 156 155 152 152 152 155 153 151 148 148 149 154 158 155 152 148 146 152 153 161
150 153 151 67 66 36 319 315 349 352 134 127 79 72 67 49 46 114 330 146 125 136 153 177 169 159 150 149 149 149 148 148 151 154 157 153 149 149 148 149 152 155 154 154 155 153 154 155 159
163 187 106 65 74 168 263 283 176 72 111 70 65 58 74 55 71 166 193 132 114 129 162 193 158 150 141 142 144 144 146 149 151 150 154 152 150 152 151 152 154 152 153 157 158 157 158 163 165
161 101 57 52 1 252 231 259 182 132 56 43 76 60 43 16 116 136 118 124 117 136 178 194 154 144 133 133 133 144 151 152 153 154 155 152 154 157 157 155 153 152 156 161 162 160 162 168 170
96 74 44 19 324 313 281 248 149 97 66 47 76 78 21 357 70 100 108 122 126 141 170 185 151 149 140 130 132 148 158 151 150 148 147 150 154 157 157 156 155 156 159 160 160 166 172 178 169
59 62 56 359 331 336 341 69 91 75 77 69 80 85 21 15 79 101 106 111 113 107 16 136 136 120 118 121 116 99 139 150 144 139 140 149 154 156 156 165 167 163 164 163 167 175 174 166 167
104 81 85 287 317 338 263 81 104 101 94 105 116 92 18 23 71 95 87 78 67 51 25 12 50 97 92 88 76 69 120 132 134 134 137 139 144 142 135 151 163 164 163 164 168 177 177 174 173
142 96 30 312 204 304 298 81 104 110 110 111 108 129 184 192 108 89 72 62 53 40 26 18 34 49 63 66 58 56 98 113 122 128 126 124 114 100 108 128 154 164 173 174 166 172 170 168 170
128 71 249 224 187 236 161 92 78 78 97 79 82 135 148 125 110 93 73 51 41 36 17 23 39 39 41 48 45 44 69 90 100 103 97 80 58 54 85 110 145 164 181 179 149 136 133 133 130
119 147 234 219 181 184 189 107 131 96 86 69 70 77 107 119 120 119 119 110 65 26 16 27 39 44 42 47 47 45 49 63 69 69 59 52 47 40 59 63 75 91 91 103 89 83 104 102 104
166 200 238 253 174 153 138 103 109 125 147 178 150 137 130 129 129 134 142 155 174 297 38 40 40 52 52 42 53 53 49 58 62 55 46 56 49 41 37 32 35 35 43 43 47 49 71 95 112
172 246 222 247 144 128 147 136 109 138 198 160 146 141 138 138 145 151 154 161 143 111 57 56 63 61 50 55 55 56 53 56 50 33 43 62 54 43 37 36 35 35 40 50 50 50 70 92 110
177 293 350 71 90 105 102 111 121 114 111 119 125 130 140 145 154 153 145 140 123 109 102 78 81 82 71 63 50 59 54 54 40 19 28 68 76 56 44 36 32 31 41 53 56 58 61 75 82
184 73 43 45 71 87 100 74 88 142 126 125 136 146 152 158 160 144 140 153 169 177 168 106 87 91 87 79 70 51 55 47 37 20 20 49 82 71 58 46 34 25 33 51 69 79 73 71 74
58 58 29 28 55 82 93 49 241 161 131 138 155 158 155 163 163 170 180 176 184 192 178 144 125 93 95 93 82 72 57 71 51 9 27 56 78 79 72 64 43 27 41 58 63 59 63 73 68
41 53 11 301 79 104 108 247 266 146 145 160 173 171 168 179 180 185 181 173 175 164 161 153 111 99 97 86 74 60 53 54 40 23 34 53 66 86 85 70 45 42 58 65 65 58 60 53 47
31 25 281 300 151 132 140 225 256 154 155 171 184 188 183 186 197 198 182 172 174 171 153 120 93 103 107 94 81 66 57 44 35 36 31 42 57 84 96 76 59 64 64 53 56 59 70 53 32
242 243 273 276 281 106 137 190 221 169 164 175 187 194 194 201 213 201 184 164 159 154 137 118 101 88 93 88 76 61 48 26 28 36 30 45 63 85 105 93 70 74 70 53 49 53 53 55 18
174 183 266 272 257 122 150 160 208 187 175 182 194 201 209 215 209 184 174 156 146 144 137 140 122 103 96 87 99 84 25 9 16 13 20 33 44 63 88 80 68 71 79 75 72 65 59 38 31
171 199 245 305 20 117 124 76 227 202 206 202 200 210 212 206 196 188 179 167 169 172 171 168 167 149 136 144 144 140 126 60 22 2 16 28 41 47 80 81 79 76 80 65 67 78 66 31 41
210 195 209 198 46 57 82 354 286 259 241 219 206 216 216 205 202 195 191 193 184 189 191 190 188 168 147 127 100 78 53 33 25 21 13 9 34 45 62 88 95 87 99 101 78 96 105 69 21
256 221 181 167 117 342 75 277 289 262 257 237 231 223 220 209 195 193 194 197 199 208 196 191 183 167 162 142 133 129 127 134 290 345 6 6 23 39 49 70 87 80 91 112 129 111 113 130 65
206 106 113 112 115 71 27 137 287 309 245 243 231 221 216 201 192 192 197 198 201 200 194 196 186 183 177 163 160 155 152 167 43 34 27 18 16 28 36 56 68 58 53 50 59 76 94 140 164
134 71 56 51 69 25 252 169 276 237 228 237 228 217 213 204 196 198 198 192 195 195 192 189 188 206 192 174 168 168 169 160 124 59 32 10 14 19 25 52 49 33 27 27 52 76 103 121 141
98 93 39 2 8 259 268 200 251 247 230 224 221 210 200 195 197 196 195 197 198 199 197 191 191 214 205 186 190 192 189 180 181 191 200 232 357 358 358 28 31 8 359 23 45 67 43 50 80
171 144 161 197 215 267 312 241 257 261 253 229 204 191 178 182 197 204 203 200 199 202 202 196 199 215 210 198 208 206 194 188 199 203 196 205 221 241 280 15 1 347 1 32 51 60 20 43 22
145 163 158 131 135 338 287 286 303 354 30 72 140 162 178 184 196 204 199 198 198 201 203 199 202 211 212 207 208 209 201 195 204 206 197 209 225 232 237 304 336 335 350 12 68 56 4 47 16
135 142 105 119 144 233 290 282 265 285 276 223 182 185 196 180 178 186 191 197 198 199 201 192 195 204 208 205 210 208 206 204 202 192 205 213 223 239 252 288 299 337 342 358 83 42 351 34 351
105 95 102 108 143 156 233 270 240 234 230 206 201 192 185 173 176 171 180 188 176 164 172 187 196 200 204 202 197 192 192 189 186 194 215 216 216 214 235 251 260 277 296 295 125 266 340 43 358
142 154 146 146 191 170 180 263 295 228 211 186 182 172 151 149 142 134 136 120 118 140 169 186 195 199 208 196 183 190 188 175 186 203 213 193 197 201 208 217 204 254 271 259 199 243 267 218 283
Height
1499 1500 1501 1503 1505 1510 1510 1502 1496 1494 1493 1493 1492 1492 1494 1496 1499 1503 1497 1494 1493 1492 1491 1490 1489 1488 1487 1488 1488 1488 1489 1490 1491 1492 1493 1494 1495 1496 1498 1499 1500 1501 1502 1503 1504 1504 1505 1507 1508
1500 1500 1503 1503 1509 1519 1512 1500 1497 1495 1494 1494 1494 1494 1495 1496 1496 1496 1495 1495 1494 1493 1492 1491 1489 1488 1487 1488 1488 1489 1489 1490 1491 1492 1493 1494 1495 1497 1498 1499 1500 1501 1502 1503 1504 1505 1506 1507 1508
1500 1501 1503 1504 1510 1516 1509 1498 1496 1494 1495 1494 1495 1496 1497 1497 1497 1497 1497 1496 1495 1494 1493 1492 1490 1489 1489 1489 1489 1489 1490 1490 1491 1492 1493 1495 1495 1496 1497 1499 1500 1501 1502 1503 1504 1505 1506 1507 1508
1501 1503 1504 1508 1510 1505 1501 1497 1495 1495 1495 1495 1496 1497 1498 1499 1499 1498 1497 1497 1496 1495 1494 1493 1491 1491 1490 1490 1490 1490 1490 1490 1491 1492 1494 1495 1496 1496 1497 1498 1499 1501 1502 1503 1504 1505 1506 1507 1508
1502 1503 1507 1512 1508 1501 1497 1496 1496 1495 1496 1497 1497 1499 1500 1501 1500 1499 1499 1498 1498 1497 1495 1494 1493 1493 1492 1492 1490 1490 1490 1490 1491 1492 1494 1495 1496 1496 1497 1497 1499 1500 1502 1503 1504 1505 1506 1507 1508
1503 1503 1514 1517 1508 1500 1497 1496 1496 1496 1497 1498 1499 1500 1502 1502 1502 1501 1501 1500 1500 1498 1497 1495 1495 1494 1493 1493 1491 1490 1489 1489 1491 1492 1494 1495 1496 1496 1496 1496 1497 1500 1502 1503 1505 1506 1506 1507 1508
1504 1507 1513 1511 1509 1503 1498 1497 1497 1498 1498 1499 1500 1501 1503 1503 1503 1503 1503 1502 1501 1500 1498 1497 1496 1496 1495 1494 1492 1490 1489 1489 1491 1493 1495 1496 1497 1497 1495 1495 1497 1500 1502 1504 1505 1506 1507 1508 1509
1503 1507 1511 1511 1508 1504 1498 1498 1499 1499 1500 1501 1501 1502 1503 1504 1504 1504 1504 1503 1503 1501 1499 1498 1497 1497 1496 1495 1493 1491 1490 1490 1492 1494 1496 1497 1498 1498 1497 1497 1499 1501 1503 1504 1506 1506 1507 1508 1509
1503 1511 1514 1508 1506 1502 1498 1499 1500 1501 1501 1502 1502 1503 1504 1505 1505 1505 1505 1504 1504 1503 1501 1500 1499 1499 1498 1497 1496 1494 1492 1492 1494 1496 1498 1499 1499 1500 1500 1500 1501 1503 1504 1505 1506 1507 1508 1508 1509
1503 1512 1507 1500 1499 1499 1499 1499 1501 1502 1502 1503 1503 1504 1505 1506 1506 1506 1506 1506 1505 1504 1503 1502 1501 1501 1500 1499 1498 1497 1496 1496 1497 1498 1500 1500 1501 1502 1502 1503 1503 1504 1505 1506 1506 1507 1508 1509 1509
1501 1504 1499 1497 1497 1497 1499 1500 1501 1502 1504 1503 1503 1504 1505 1507 1507 1508 1508 1507 1507 1507 1505 1504 1504 1503 1503 1502 1502 1501 1500 1500 1500 1501 1502 1503 1503 1504 1504 1504 1504 1505 1506 1506 1507 1508 1508 1509 1510
1500 1499 1497 1496 1496 1497 1499 1500 1501 1502 1503 1503 1504 1505 1506 1507 1508 1509 1509 1509 1509 1508 1507 1507 1506 1506 1505 1505 1505 1505 1504 1504 1504 1505 1505 1505 1505 1505 1506 1506 1506 1507 1507 1508 1508 1509 1509 1510 1510
1499 1498 1497 1496 1497 1498 1499 1500 1501 1502 1503 1504 1505 1506 1507 1508 1509 1510 1511 1511 1510 1510 1509 1509 1508 1508 1508 1508 1507 1507 1507 1507 1507 1507 1507 1507 1507 1507 1507 1508 1508 1508 1509 1509 1509 1510 1510 1510 1511
1498 1498 1498 1498 1498 1499 1500 1502 1503 1503 1504 1505 1506 1507 1508 1509 1510 1511 1511 1512 1511 1511 1511 1511 1510 1510 1510 1510 1510 1509 1509 1509 1509 1509 1509 1509 1509 1509 1509 1509 1510 1510 1510 1510 1510 1511 1511 1511 1512
1498 1499 1500 1500 1499 1500 1502 1506 1504 1504 1505 1506 1507 1508 1510 1511 1511 1512 1512 1513 1513 1513 1513 1512 1512 1512 1511 1511 1511 1511 1511 1511 1511 1511 1511 1511 1511 1511 1511 1511 1511 1511 1511 1511 1511 1512 1512 1512 1512
1500 1505 1510 1503 1501 1501 1506 1513 1505 1505 1505 1507 1508 1509 1510 1511 1512 1513 1514 1514 1514 1514 1514 1513 1513 1513 1513 1513 1513 1513 1513 1513 1513 1512 1512 1512 1512 1512 1512 1512 1512 1513 1512 1512 1512 1512 1512 1513 1513
1510 1516 1513 1507 1502 1502 1505 1510 1505 1505 1506 1507 1508 1509 1510 1512 1513 1514 1514 1515 1515 1515 1515 1514 1514 1514 1514 1514 1514 1514 1514 1514 1514 1514 1514 1514 1514 1514 1514 1514 1513 1513 1513 1513 1513 1513 1513 1513 1513
1516 1515 1513 1511 1504 1503 1506 1508 1506 1505 1506 1507 1508 1509 1510 1511 1512 1514 1515 1515 1516 1516 1515 1515 1515 1515 1515 1516 1515 1515 1515 1515 1515 1515 1515 1516 1515 1515 1515 1515 1514 1514 1514 1514 1514 1514 1514 1514 1514
1505 1510 1514 1509 1502 1505 1508 1509 1506 1505 1506 1507 1508 1509 1510 1511 1512 1514 1515 1515 1516 1516 1516 1516 1516 1516 1516 1516 1516 1516 1516 1516 1517 1517 1516 1516 1516 1516 1516 1515 1515 1515 1514 1514 1514 1514 1514 1514 1514
1504 1511 1512 1508 1502 1506 1509 1509 1506 1506 1505 1506 1507 1507 1508 1510 1511 1513 1514 1515 1515 1516 1516 1516 1516 1516 1517 1517 1517 1517 1517 1517 1517 1517 1517 1517 1516 1516 1516 1516 1515 1515 1515 1515 1515 1515 1515 1515 1514
1504 1508 1509 1510 1507 1506 1509 1514 1510 1506 1506 1506 1506 1506 1507 1508 1509 1511 1513 1514 1515 1515 1516 1516 1516 1517 1517 1517 1517 1517 1517 1517 1517 1517 1517 1517 1517 1516 1516 1516 1516 1516 1516 1515 1515 1515 1515 1515 1515
1507 1498 1500 1505 1513 1521 1516 1529 1513 1509 1507 1505 1504 1505 1505 1506 1508 1510 1511 1513 1514 1515 1516 1516 1516 1517 1517 1517 1517 1517 1517 1517 1517 1517 1517 1517 1517 1517 1516 1516 1516 1516 1516 1515 1515 1515 1515 1514 1514
1498 1495 1500 1506 1514 1522 1521 1527 1520 1510 1509 1504 1502 1502 1503 1504 1506 1508 1510 1511 1513 1514 1515 1515 1516 1516 1517 1517 1517 1517 1517 1517 1517 1517 1517 1517 1517 1517 1516 1516 1516 1516 1515 1515 1515 1515 1514 1514 1514
1493 1500 1506 1514 1521 1533 1525 1528 1524 1513 1505 1500 1498 1499 1500 1502 1504 1506 1508 1510 1511 1513 1514 1514 1515 1515 1516 1516 1517 1517 1517 1517 1517 1517 1517 1517 1517 1517 1516 1516 1516 1515 1515 1514 1514 1514 1514 1514 1513
1496 1513 1531 1534 1541 1537 1523 1525 1520 1501 1496 1495 1495 1496 1497 1500 1502 1504 1506 1507 1509 1511 1512 1513 1514 1514 1515 1515 1516 1516 1516 1516 1516 1516 1516 1516 1516 1516 1516 1516 1515 1515 1514 1514 1513 1513 1513 1513 1512
1499 1507 1529 1540 1543 1536 1524 1525 1509 1495 1493 1492 1493 1494 1496 1498 1500 1501 1503 1505 1507 1508 1510 1511 1512 1512 1513 1514 1514 1515 1515 1515 1515 1516 1515 1515 1515 1515 1515 1515 1515 1514 1514 1513 1513 1512 1512 1511 1511
1499 1507 1507 1525 1532 1537 1529 1518 1503 1493 1493 1492 1492 1493 1494 1496 1497 1499 1501 1503 1504 1506 1507 1509 1510 1511 1512 1512 1513 1513 1514 1514 1514 1515 1515 1514 1514 1514 1514 1514 1513 1513 1513 1512 1512 1511 1510 1510 1509
1491 1500 1514 1525 1537 1540 1529 1522 1515 1500 1496 1493 1493 1493 1494 1495 1497 1498 1500 1501 1503 1504 1506 1507 1508 1509 1510 1511 1511 1512 1512 1512 1513 1513 1513 1513 1513 1513 1513 1512 1512 1512 1511 1511 1510 1510 1509 1508 1508
1497 1503 1513 1524 1525 1537 1538 1525 1498 1496 1493 1493 1492 1492 1493 1494 1496 1497 1499 1500 1502 1503 1505 1506 1507 1508 1508 1509 1509 1510 1510 1511 1511 1511 1511 1512 1511 1511 1511 1511 1510 1510 1510 1509 1508 1508 1507 1506 1506
1489 1497 1506 1518 1526 1529 1531 1522 1491 1490 1490 1491 1491 1492 1493 1494 1496 1497 1498 1500 1501 1503 1504 1505 1506 1506 1507 1508 1508 1508 1508 1509 1509 1509 1509 1510 1510 1510 1510 1509 1509 1508 1508 1507 1506 1506 1505 1504 1504